Location: ????????
(38.4362°N, 22.8767°E)
Time: 04:26:05
(UTC+00:00)

USA 267 - Pass Details

Date: 23 April 2024
Orbit: 1100 x 1107 km, 123.0° (Epoch: 15 May)

Event Time Altitude Azimuth Distance (km) Brightness Sun altitude
Rises 00:56:21 0° 121° (ESE) 3,905 6.3 -28.1°
Reaches altitude 10° 00:58:50 10° 118° (ESE) 2,949 5.7 -27.8°
Maximum altitude 01:05:15 63° 39° (NE) 1,219 3.6 -26.9°
Drops below altitude 10° 01:11:40 10° 320° (NW) 2,960 5.6 -26.0°
Sets 01:14:10 0° 318° (NW) 3,921 6.2 -25.7°
